Tracking 22879 objects as of 20-Apr-2021
HD Live streaming from Space Station
objects crossing your sky now

SL-8 DEB

Track SL-8 DEB now!
10-day predictions


NORAD ID: 39840
Int'l Code: 1991-009DY
Perigee: 1,013.1 km
Apogee: 1,179.1 km
Inclination: 73.8 °
Period: 107.0 minutes
Semi major axis: 7467 km
RCS: 0.0175 m2 (small)
Launch date: February 12, 1991
Source: Commonwealth of Independent States (former USSR) (CIS)
Launch site: PLESETSK MISSILE AND SPACE COMPLEX (PKMTR)

Note: This is SATELLITE DEBRIS
aabbcc
Your satellite tracking list
Your tracking list is empty




NASA's NSSDC Master Catalog

Two Line Element Set (TLE):
1 39840U 91009DY  21110.14017542  .00000822  00000-0  13736-2 0  9996
2 39840  73.8136 266.6427 0111139 335.6959 139.4292 13.45477940876356
Source of the keplerian elements: AFSPC